Racine, WI

10:28 PM CDT on September 22, 2017 (GMT -0500)
Batten

Weather History for KRAC - January, 2014

Change the Weather History Date:

Tuesday, January 7, 2014

  Actual Average Record
Temperature  
Mean Temperature -7 °F -  
Max Temperature 0 °F 26 °F 63 °F (2008)
Min Temperature -14 °F 11 °F -17 °F (1968)
Degree Days  
Heating Degree Days 72    
Moisture  
Dew Point -16 °F    
Average Humidity 65    
Maximum Humidity 76    
Minimum Humidity 54    
Precipitation  
Precipitation 0.00 in - - ()
Sea Level Pressure  
Sea Level Pressure 30.29 in    
Wind  
Wind Speed 9 mph (WSW)    
Max Wind Speed 16 mph    
Max Gust Speed 24 mph    
Visibility 10 miles    
Events      
Averages and records for this station are not official NWS values.
T = Trace of Precipitation, MM = Missing Value Source: NWS Daily Summary

Daily Weather History Graph

Daily Weather History Graph

Search for Another Location

Airport or City:

Trip Planner

Search our weather history database for the weather conditions in past years. The results will help you decide how hot, cold, wet, or windy it might be!

Date:

Astronomy

Jan. 07, 2014 Rise Set
Actual Time 7:21 AM CST 4:33 PM CST
Civil Twilight 6:49 AM CST 5:05 PM CST
Nautical Twilight 6:14 AM CST 5:41 PM CST
Astronomical Twilight 5:40 AM CST 6:15 PM CST
Moon 10:59 AM CST (1/7) No Moon Set
Length of Visible Light 10h 15m
Length of Day
9h 12m
Waxing Crescent, 46% of the Moon is Illuminated
Jan 7
Waxing Crescent
Jan 7
First Quarter
Jan 15
Full
Jan 23
Last Quarter
Jan 30
New

Hourly Weather History & Observations

Time (CST) Temp. Windchill Dew Point Humidity Pressure Visibility Wind Dir Wind Speed Gust Speed Precip Events Conditions
12:53 AM -14.1 °F -33.7 °F -23.1 °F 64% 30.23 in 10.0 mi West 10.4 mph 17.3 mph N/A   Clear
1:53 AM -14.1 °F -32.6 °F -23.1 °F 64% 30.25 in 10.0 mi West 9.2 mph - N/A   Clear
2:53 AM -14.1 °F -31.3 °F -22.0 °F 68% 30.25 in 10.0 mi West 8.1 mph 18.4 mph N/A   Clear
3:53 AM -14.1 °F -33.7 °F -22.0 °F 68% 30.26 in 10.0 mi West 10.4 mph 19.6 mph N/A   Clear
4:53 AM -13.0 °F -34.3 °F -22.0 °F 64% 30.25 in 10.0 mi WSW 12.7 mph 19.6 mph N/A   Clear
5:53 AM -13.0 °F -32.4 °F -20.9 °F 68% 30.27 in 10.0 mi WSW 10.4 mph - N/A   Clear
6:53 AM -13.0 °F -30.0 °F -20.9 °F 68% 30.26 in 10.0 mi WSW 8.1 mph - N/A   Clear
7:53 AM -13.0 °F -30.0 °F -20.9 °F 68% 30.28 in 10.0 mi WSW 8.1 mph - N/A   Clear
8:53 AM -11.0 °F -34.2 °F -20.0 °F 64% 30.31 in 10.0 mi SW 16.1 mph 24.2 mph N/A   Clear
9:53 AM -9.0 °F -30.2 °F -18.0 °F 65% 30.33 in 10.0 mi WSW 13.8 mph 20.7 mph N/A   Clear
10:53 AM -6.0 °F -23.6 °F -16.1 °F 62% 30.31 in 10.0 mi West 10.4 mph 20.7 mph N/A   Scattered Clouds
11:53 AM -4.0 °F -24.5 °F -15.0 °F 59% 30.28 in 10.0 mi West 15.0 mph 19.6 mph N/A   Clear
12:53 PM -2.0 °F -19.6 °F -14.1 °F 57% 30.27 in 10.0 mi WSW 11.5 mph 19.6 mph N/A   Clear
1:53 PM -0.9 °F -16.4 °F -13.0 °F 57% 30.27 in 10.0 mi WSW 9.2 mph - N/A   Clear
2:53 PM -0.0 °F -15.3 °F -13.0 °F 54% 30.27 in 10.0 mi WSW 9.2 mph - N/A   Clear
3:53 PM -0.0 °F -16.3 °F -13.0 °F 54% 30.27 in 10.0 mi West 10.4 mph - N/A   Clear
4:53 PM -0.9 °F -12.7 °F -11.9 °F 60% 30.28 in 10.0 mi SW 5.8 mph - N/A   Clear
5:53 PM -2.0 °F -12.2 °F -11.9 °F 63% 30.31 in 10.0 mi SW 4.6 mph - N/A   Clear
6:53 PM -2.0 °F -10.1 °F -11.9 °F 63% 30.32 in 10.0 mi SSW 3.5 mph - N/A   Clear
7:53 PM -2.9 °F -13.3 °F -11.0 °F 68% 30.33 in 10.0 mi SW 4.6 mph - N/A   Clear
8:53 PM -2.9 °F -11.2 °F -9.9 °F 72% 30.34 in 10.0 mi SW 3.5 mph - N/A   Clear
9:53 PM -2.0 °F - -9.0 °F 72% 30.36 in 10.0 mi Calm Calm - N/A   Clear
10:53 PM -2.9 °F -13.3 °F -9.9 °F 72% 30.35 in 10.0 mi SW 4.6 mph - N/A   Clear
11:53 PM -4.0 °F -14.6 °F -9.9 °F 76% 30.34 in 10.0 mi WNW 4.6 mph - N/A   Clear